SCP
0 0 0 0 0 0 0 0 0 0 0 0 0 0 0 0 0 0 0 0 0 0 0 0 0 0 0 0 0 0 0 0 0 0 0 0 0 0 0 0 0 0 0
0 0 0 0 0 0 0 0 0 0 0 0 0 0 0 0 0 0 0 0 0 0 0 0 0 0 0 0 0 0 0 0 0 0 0 0 0 0 0 0 0 0 0
0 0 0 0 0 0 0 0 0 0 0 0 0 0 0 0 0 0 0 0 0 0 0 0 0 0 0 0 0 0 0 0 0 0 0 0 0 0 0 0 0 0 0
0 0 0 0 0 0 0 0 0 0 0 0 0 0 0 0 0 0 0 0 0 0 0 0 0 0 0 0 0 0 0 0 0 0 0 0 0 0 0 0 0 0 0
0 0 0 0 0 0 0 0 0 0 0 0 0 0 0 0 0 0 0 0 0 0 0 0 0 0 0 0 0 0 0 0 0 0 0 0 0 0 0 0 0 0 0
0 0 0 0 0 0 0 0 0 0 0 0 0 0 0 0 0 0 0 0 0 0 0 0 0 0 0 0 0 0 0 0 0 0 0 0 0 0 0 0 0 0 0
0 0 0 0 0 0 0 0 0 0 0 0 0 0 0 0 0 0 0 0 0 0 0 0 0 0 0 0 0 0 0 0 0 0 0 0 0 0 0 0 0 0 0
0 0 0 0 0 0 0 0 0 0 0 0 0 0 0 0 0 0 0 0 0 0 0 0 0 0 0 0 0 0 0 0 0 0 0 0 0 0 0 0 0 0 0
0 0 0 0 0 0 0 0 0 0 0 0 0 0 0 0 0 0 0 0 0 0 0 0 0 0 0 0 0 0 0 0 0 0 0 0 0 0 0 0 0 0 0
0 0 0 0 0 0 0 0 0 0 0 0 0 0 0 0 0 0 0 0 0 0 0 0 0 0 0 0 0 0 0 0 0 0 0 0 0 0 0 0 0 0 0
0 0 0 0 0 0 0 0 0 0 0 0 0 0 0 0 0 0 0 0 0 0 0 0 0 0 0 0 0 0 0 0 0 0 0 0 0 0 0 0 0 0 0
0 0 0 0 0 0 0 0 0 0 0 0 0 0 0 0 0 0 0 0 0 0 0 0 0 0 0 0 0 0 0 0 0 0 0 0 0 0 0 0 0 0 0
0 0 0 0 0 0 0 0 0 0 0 0 0 0 0 0 0 0 0 0 0 0 0 0 0 0 0 0 0 0 0 0 0 0 0 0 0 0 0 0 0 0 0
0 0 0 0 0 0 0 0 0 0 0 0 0 0 0 0 0 0 0 0 0 0 0 0 0 0 0 0 0 0 0 0 0 0 0 0 0 0 0 0 0 0 0
0 0 0 0 0 0 0 0 0 0 0 0 0 0 0 0 0 0 0 0 0 0 0 0 0 0 0 0 0 0 0 0 0 0 0 0 0 0 0 0 0 0 0
0 0 0 0 0 0 0 0 0 0 0 0 0 0 0 0 0 0 0 0 0 0 0 0 0 0 0 0 0 0 0 0 0 0 0 0 0 0 0 0 0 0 0
0 0 0 0 0 0 0 0 0 0 0 0 0 0 0 0 0 0 0 0 0 0 0 0 0 0 0 0 0 0 0 0 0 0 0 0 0 0 0 0 0 0 0
0 0 0 0 0 0 0 0 0 0 0 0 0 0 0 0 0 0 0 0 0 0 0 0 0 0 0 0 0 0 0 0 0 0 0 0 0 0 0 0 0 0 0
0 1 0 0 0 0 0 0 0 0 0 0 0 0 0 0 0 0 0 0 0 0 0 0 0 0 0 0 0 0 0 0 0 0 0 0 0 0 0 0 0 0 0
1 1 1 1 0 0 0 0 0 0 0 0 0 0 0 0 0 0 0 0 0 0 0 0 0 0 0 0 0 0 0 0 0 0 0 0 0 0 0 0 0 0 0
1 1 1 1 1 0 0 0 0 0 0 0 0 0 0 0 0 0 0 0 0 0 0 0 0 0 0 0 0 0 0 0 0 0 0 0 0 0 0 0 0 0 0
1 1 1 1 1 1 1 0 0 0 0 0 0 0 0 0 0 0 0 0 0 0 0 0 0 0 0 0 0 0 0 0 0 0 0 0 0 0 0 0 0 0 0
1 1 1 1 1 1 1 1 0 0 0 0 0 0 0 0 0 0 0 0 0 0 0 0 0 0 0 0 0 0 0 0 0 0 0 0 0 0 0 0 0 0 0
1 1 1 1 1 1 1 1 0 0 0 0 0 0 0 0 0 0 0 0 0 0 0 0 0 0 0 0 0 0 0 0 0 0 0 0 0 0 0 0 0 0 0
1 1 1 1 1 1 1 1 0 0 0 0 0 0 0 0 0 0 0 0 0 0 0 0 0 0 0 0 0 0 0 0 0 0 0 0 0 0 0 0 0 0 0
1 1 1 1 1 1 1 1 0 0 0 0 0 0 0 0 0 0 0 0 0 0 0 0 0 0 0 0 0 0 0 0 0 0 0 0 0 0 0 0 0 0 0
Wind_Speed
10 13 13 13 13 12 12 12 11 11 11 11 11 11 12 12 12 11 12 12 12 13 14 14 15 15 15 15 15 15 15 14 15 15 16 15 15 15 15 14 13 10 15
14 14 13 13 13 13 12 11 11 11 11 11 11 11 11 11 11 12 12 12 12 13 14 14 14 14 14 14 14 13 13 12 11 11 13 13 14 15 15 15 14 9 14
15 14 12 12 13 12 12 11 10 10 11 10 11 10 10 10 11 11 11 11 12 12 12 13 13 13 13 12 12 12 10 8 7 6 7 6 9 13 13 13 13 13 13
14 13 12 12 12 12 12 11 10 10 10 10 10 10 10 10 11 11 11 11 11 11 11 12 12 12 11 11 11 10 8 6 6 5 4 6 6 11 12 12 12 12 11
12 11 13 13 12 13 12 11 10 9 9 10 10 10 10 10 10 10 10 10 10 10 10 10 11 10 10 10 9 7 5 5 7 4 5 6 5 9 10 10 10 10 9
11 12 13 12 12 12 12 11 10 10 9 10 9 9 9 9 9 9 9 9 9 9 9 9 9 9 9 8 7 5 4 6 6 2 5 5 5 8 9 9 8 8 7
10 12 13 11 11 11 11 10 10 9 9 9 9 9 9 9 9 8 8 8 8 8 8 8 8 7 7 6 5 4 4 8 3 3 4 5 5 7 7 6 6 6 6
10 11 11 10 10 10 10 9 9 9 9 9 8 8 8 8 8 8 7 7 7 6 6 6 6 6 5 5 3 2 4 6 4 3 3 4 5 5 5 4 4 4 4
10 10 10 9 9 9 9 9 8 8 8 8 8 7 7 7 7 7 6 6 6 6 6 5 5 5 4 3 2 1 3 6 4 1 2 3 4 4 3 2 2 2 2
9 9 9 9 9 8 7 8 8 8 8 8 8 7 7 6 6 6 6 6 6 6 5 5 4 4 4 3 2 1 3 6 4 1 1 3 5 3 2 2 2 2 2
7 7 8 8 8 8 8 9 8 8 8 8 7 8 7 4 5 5 6 7 6 6 5 5 4 4 4 4 4 4 4 3 3 1 1 5 5 3 3 4 4 4 4
8 7 7 8 7 7 7 7 6 6 6 6 5 6 5 4 4 5 8 9 8 7 6 6 6 5 4 3 5 6 3 5 3 2 2 6 6 5 6 6 7 7 7
9 8 7 7 7 6 5 5 4 4 5 6 7 7 5 4 3 3 3 4 5 6 4 5 5 4 4 4 3 4 4 3 2 2 3 7 7 8 9 9 9 9 10
8 9 8 7 7 7 6 5 4 4 4 4 5 7 5 3 3 4 3 4 4 4 4 4 4 5 5 4 4 4 4 2 2 2 3 7 8 10 11 12 12 12 12
8 9 9 8 8 7 6 4 5 4 4 5 5 5 5 4 4 4 3 4 4 4 4 4 4 5 5 4 4 5 5 5 4 4 3 8 10 12 13 14 15 15 15
9 9 9 9 8 7 6 5 4 5 5 5 5 6 6 4 4 4 4 4 4 4 4 4 5 4 4 4 5 5 5 5 5 6 5 6 11 13 15 16 17 17 17
9 9 9 9 9 8 8 7 5 5 5 5 5 6 7 6 5 5 4 4 4 4 4 4 4 3 3 4 5 6 5 6 6 6 6 5 6 12 15 18 18 19 19
8 9 9 8 9 9 8 7 5 5 5 5 5 5 7 7 6 5 4 4 5 4 4 4 4 3 4 4 4 4 4 5 7 7 7 6 6 6 10 16 18 19 20
8 9 9 9 9 9 8 6 6 5 5 5 5 5 6 8 8 6 5 4 5 4 4 4 4 4 4 4 4 4 4 5 6 7 8 8 7 7 6 10 15 16 18
8 8 8 9 9 8 7 6 5 6 6 5 6 6 7 7 8 7 5 6 6 4 4 4 5 4 4 4 4 5 5 6 6 7 8 7 7 8 8 7 7 9 16
7 8 8 8 9 8 7 7 7 7 6 6 6 7 8 8 8 8 6 6 6 6 6 6 5 5 5 3 3 4 6 9 10 8 7 7 7 8 7 8 6 6 6
8 7 8 8 8 8 7 7 6 6 5 6 5 7 8 8 9 8 9 7 7 6 7 7 6 4 4 4 4 3 4 4 5 7 6 6 6 5 6 7 7 7 6
7 8 7 8 8 8 7 5 5 4 4 5 6 6 8 8 8 8 9 7 7 7 7 7 7 7 6 5 6 4 3 4 3 3 5 5 5 4 5 5 7 7 8
6 5 6 6 7 7 7 6 7 7 8 8 6 6 6 8 8 8 8 8 7 7 7 7 7 6 6 6 5 6 5 3 2 4 3 3 4 5 6 5 6 6 7
4 4 4 5 6 6 6 7 8 7 7 5 4 6 7 7 8 8 8 7 8 7 7 7 7 7 6 6 5 3 5 5 6 5 6 4 4 4 5 6 5 5 6
3 3 3 3 4 5 6 7 8 8 7 6 5 5 5 5 6 8 8 8 7 7 7 7 7 7 7 7 5 4 4 4 4 6 7 6 6 5 5 5 5 5 5
Wind_Direction
124 130 141 140 136 131 126 123 121 118 115 112 109 104 103 103 101 98 95 94 92 89 86 84 81 79 77 76 75 74 75 75 76 77 75 73 72 70 68 68 70 67 72
125 132 140 139 137 133 129 125 123 122 120 115 111 109 106 106 103 101 97 95 93 91 88 86 84 81 79 77 77 77 76 76 79 82 81 76 73 71 71 70 73 74 73
124 133 141 138 137 135 132 130 128 127 124 121 117 113 111 111 108 104 100 96 94 92 91 90 88 84 82 80 78 78 76 69 57 64 82 87 76 74 74 75 74 74 74
128 139 142 138 138 138 136 135 134 133 131 126 122 117 115 112 109 106 104 101 98 97 95 94 92 87 85 83 81 77 69 42 12 26 74 82 78 78 77 77 75 73 74
130 135 133 141 142 143 142 141 139 137 133 130 128 123 119 113 109 108 108 104 102 102 99 98 96 93 88 85 82 75 54 10 349 31 77 83 79 81 79 78 76 74 72
131 128 137 144 146 147 148 147 146 144 139 135 134 131 125 121 115 113 114 111 106 104 104 103 100 98 94 88 82 71 33 352 340 43 73 80 83 86 84 83 82 79 77
133 129 143 146 148 149 151 152 152 150 145 142 141 138 134 130 126 123 121 120 114 109 110 109 107 106 100 92 82 54 8 342 346 55 75 81 89 93 91 91 87 84 82
132 131 142 145 149 152 154 156 157 156 153 151 148 144 142 141 138 135 134 132 128 125 122 118 115 111 110 104 90 42 350 334 344 54 90 94 102 102 100 97 94 90 88
133 136 145 155 156 155 157 157 159 158 157 157 154 149 144 144 143 140 142 145 144 141 136 131 129 123 124 121 109 18 322 320 318 331 99 106 116 114 116 122 129 119 118
138 146 154 162 164 164 163 163 162 162 162 161 157 152 150 150 151 155 157 161 162 159 152 150 149 150 150 154 172 256 285 303 283 257 125 126 135 144 162 184 192 191 198
148 155 161 164 167 167 169 168 164 166 167 163 161 163 163 173 174 174 179 170 170 169 169 175 178 181 178 190 206 230 260 265 273 271 120 138 157 190 217 226 227 226 229
169 169 169 169 170 169 171 159 172 176 173 181 176 174 189 197 186 176 170 172 176 177 183 194 201 206 211 210 215 219 238 248 257 241 172 170 190 220 235 237 238 239 240
176 173 176 175 173 172 162 163 175 176 175 190 186 181 192 193 175 167 153 166 179 189 197 201 205 218 220 218 202 204 227 246 247 238 189 189 205 229 243 243 245 245 243
180 179 181 179 177 176 171 176 177 175 175 184 184 182 186 185 183 178 176 175 182 190 200 199 200 214 219 222 224 231 240 246 252 243 209 205 213 234 248 248 248 247 247
187 184 182 182 182 179 180 185 183 184 182 184 184 186 188 186 189 190 192 187 189 191 193 204 210 214 217 225 228 230 236 240 246 248 227 219 221 232 248 253 252 250 249
190 186 183 185 187 183 184 188 190 190 188 190 185 188 195 196 191 193 197 195 199 198 197 201 213 218 217 222 232 235 236 239 240 240 235 229 229 233 243 250 253 253 252
187 185 185 187 188 188 191 194 195 194 190 192 192 192 194 200 200 195 197 198 201 202 202 204 220 222 223 226 234 238 239 240 243 244 243 237 233 233 237 246 250 253 254
185 185 187 184 188 193 194 195 195 194 194 195 195 196 198 203 205 202 201 203 199 197 196 201 210 216 226 230 236 242 241 240 241 244 245 243 239 237 234 239 245 250 253
187 183 186 185 188 194 196 195 197 196 199 197 198 200 201 203 206 206 205 204 198 199 200 204 208 209 225 234 239 246 248 246 244 244 243 243 242 240 236 236 236 241 248
184 182 184 186 189 191 193 195 199 203 204 203 203 204 203 204 204 207 208 209 203 202 203 203 209 214 221 230 246 254 253 250 247 243 242 242 241 239 237 238 235 237 240
182 183 186 189 190 187 190 193 198 205 205 207 210 208 205 205 204 206 210 211 210 209 208 207 206 216 220 212 240 265 258 246 242 239 234 236 239 237 234 233 231 232 236
184 187 190 193 192 193 195 196 199 200 205 207 209 211 209 207 205 206 209 211 211 212 213 213 208 210 215 197 201 240 283 286 251 234 227 229 236 238 238 235 232 232 233
187 190 193 196 196 198 197 190 190 198 209 208 210 211 212 209 207 208 209 211 211 210 217 216 210 210 220 212 203 206 231 254 298 274 231 226 229 236 244 244 239 237 234
188 186 191 194 196 198 194 193 193 199 207 211 207 206 206 205 207 210 212 213 215 214 218 219 215 215 216 225 217 218 227 231 262 293 284 248 237 239 243 244 243 241 237
176 183 194 199 200 198 198 198 199 211 217 214 203 200 201 201 203 209 213 215 218 219 219 216 214 215 217 223 221 216 231 240 235 249 273 276 270 251 245 245 244 243 240
166 173 191 202 208 204 204 204 204 211 215 214 210 205 201 200 202 207 213 216 218 219 221 220 219 217 219 221 224 218 212 220 225 235 254 264 267 264 254 248 246 245 243